LGL700 LEMH-LEIB

Flight info

Callsign LGL700
Flight time 0h 41m
Altitude 21000
Route NEVIC
Aircraft B738/M-SDE2E3FGHIRWXY/LB1

Departure

Time 2026-05-07 06:33
Airport Menorca Airport (LEMH)

Arrival

Time 2026-05-07 07:15
Airport Ibiza Airport (LEIB)
Time Latitude Longitude Altitude Speed Heading
2026-05-07 05:47 39.86469 4.22400 285 ft 0 kts 99°
2026-05-07 06:10 39.86471 4.22384 286 ft 4 kts 103°
2026-05-07 06:10 39.86479 4.22351 286 ft 4 kts 121°
2026-05-07 06:10 39.86496 4.22328 287 ft 4 kts 163°
2026-05-07 06:11 39.86507 4.22325 287 ft 0 kts 189°
2026-05-07 06:22 39.86486 4.22321 290 ft 8 kts 189°
2026-05-07 06:23 39.86419 4.22307 287 ft 9 kts 189°
2026-05-07 06:23 39.86358 4.22294 287 ft 9 kts 189°
2026-05-07 06:23 39.86296 4.22281 287 ft 10 kts 189°
2026-05-07 06:23 39.86239 4.22269 287 ft 4 kts 189°
2026-05-07 06:24 39.86208 4.22261 287 ft 5 kts 198°
2026-05-07 06:24 39.86186 4.22222 288 ft 7 kts 259°
2026-05-07 06:24 39.86190 4.22155 293 ft 7 kts 279°
2026-05-07 06:24 39.86178 4.22094 297 ft 7 kts 221°
2026-05-07 06:25 39.86129 4.22076 296 ft 9 kts 188°
2026-05-07 06:25 39.86051 4.22061 296 ft 13 kts 189°
2026-05-07 06:25 39.85956 4.22041 295 ft 17 kts 189°
2026-05-07 06:25 39.85799 4.22008 294 ft 27 kts 189°
2026-05-07 06:26 39.85611 4.21970 287 ft 27 kts 189°
2026-05-07 06:26 39.85430 4.21933 282 ft 26 kts 189°
2026-05-07 06:26 39.85265 4.21899 280 ft 17 kts 189°
2026-05-07 06:26 39.85191 4.21884 280 ft 8 kts 188°
2026-05-07 06:27 39.85149 4.21872 280 ft 6 kts 203°
2026-05-07 06:27 39.85130 4.21842 281 ft 0 kts 249°
2026-05-07 06:28 39.85129 4.21839 281 ft 2 kts 251°
2026-05-07 06:28 39.85128 4.21798 282 ft 2 kts 279°
2026-05-07 06:29 39.85129 4.21790 282 ft 0 kts 279°
2026-05-07 06:29 39.85134 4.21756 283 ft 9 kts 279°
2026-05-07 06:29 39.85150 4.21656 288 ft 10 kts 297°
2026-05-07 06:30 39.85197 4.21647 287 ft 0 kts
2026-05-07 06:33 39.85224 4.21652 285 ft 17 kts
2026-05-07 06:33 39.85607 4.21731 291 ft 93 kts
2026-05-07 06:33 39.86456 4.21902 309 ft 152 kts
2026-05-07 06:33 39.87540 4.22127 912 ft 156 kts 12°
2026-05-07 06:34 39.88611 4.22361 1686 ft 156 kts 11°
2026-05-07 06:34 39.89700 4.22595 2398 ft 164 kts 11°
2026-05-07 06:34 39.90922 4.22854 2740 ft 197 kts 12°
2026-05-07 06:34 39.92374 4.23151 2970 ft 228 kts 11°
2026-05-07 06:35 39.94033 4.23494 3403 ft 250 kts 11°
2026-05-07 06:35 39.95785 4.23855 4136 ft 259 kts 11°
2026-05-07 06:35 39.97568 4.24219 5014 ft 262 kts 11°
2026-05-07 06:35 39.99416 4.24195 5777 ft 274 kts 344°
2026-05-07 06:36 40.00994 4.22800 6632 ft 282 kts 308°
2026-05-07 06:36 40.01734 4.20447 7490 ft 286 kts 277°
2026-05-07 06:36 40.01591 4.17905 8349 ft 289 kts 251°
2026-05-07 06:36 40.00752 4.15528 9282 ft 290 kts 240°
2026-05-07 06:37 39.99871 4.13150 10182 ft 293 kts 243°
2026-05-07 06:37 39.98829 4.10785 10653 ft 312 kts 234°
2026-05-07 06:37 39.97430 4.08472 10902 ft 337 kts 226°
2026-05-07 06:37 39.95695 4.06352 11527 ft 346 kts 218°
2026-05-07 06:38 39.93699 4.04597 12441 ft 346 kts 209°
2026-05-07 06:38 39.91516 4.03285 13412 ft 347 kts 201°
2026-05-07 06:38 39.89205 4.02438 14223 ft 354 kts 192°
2026-05-07 06:38 39.86733 4.02079 14999 ft 362 kts 183°
2026-05-07 06:39 39.84202 4.02264 15816 ft 369 kts 174°
2026-05-07 06:39 39.81677 4.03011 16590 ft 376 kts 165°
2026-05-07 06:39 39.79211 4.04259 17335 ft 383 kts 162°
2026-05-07 06:39 39.76610 4.04925 18019 ft 383 kts 182°
2026-05-07 06:40 39.73999 4.04380 18778 ft 380 kts 201°
2026-05-07 06:40 39.71640 4.02870 19542 ft 379 kts 216°
2026-05-07 06:40 39.69684 4.00656 20264 ft 379 kts 229°
2026-05-07 06:40 39.67987 3.98035 21013 ft 380 kts 232°
2026-05-07 06:41 39.66332 3.95346 21690 ft 383 kts 233°
2026-05-07 06:41 39.64673 3.92630 22353 ft 385 kts 232°
2026-05-07 06:41 39.62997 3.89907 22904 ft 388 kts 232°
2026-05-07 06:41 39.61312 3.87202 22969 ft 383 kts 232°
2026-05-07 06:42 39.59627 3.84522 22988 ft 384 kts 232°
2026-05-07 06:42 39.57920 3.81824 22994 ft 389 kts 232°
2026-05-07 06:42 39.56202 3.79120 22984 ft 388 kts 232°
2026-05-07 06:42 39.54510 3.76464 22981 ft 387 kts 232°
2026-05-07 06:43 39.52796 3.73777 22981 ft 386 kts 232°
2026-05-07 06:43 39.51084 3.71096 22983 ft 386 kts 232°
2026-05-07 06:43 39.49372 3.68416 22982 ft 386 kts 231°
2026-05-07 06:43 39.47661 3.65739 22980 ft 386 kts 231°
2026-05-07 06:44 39.45950 3.63065 22981 ft 385 kts 231°
2026-05-07 06:44 39.44243 3.60399 22983 ft 385 kts 231°
2026-05-07 06:44 39.42532 3.57729 22982 ft 385 kts 231°
2026-05-07 06:44 39.40820 3.55059 22980 ft 386 kts 231°
2026-05-07 06:45 39.39129 3.52424 22977 ft 386 kts 231°
2026-05-07 06:45 39.37414 3.49753 22974 ft 386 kts 231°
2026-05-07 06:45 39.35695 3.47082 22971 ft 386 kts 231°
2026-05-07 06:45 39.33991 3.44397 22969 ft 386 kts 234°
2026-05-07 06:46 39.32705 3.41371 22969 ft 386 kts 249°
2026-05-07 06:46 39.31895 3.38069 22972 ft 386 kts 252°
2026-05-07 06:46 39.31144 3.34739 22967 ft 386 kts 253°
2026-05-07 06:46 39.30413 3.31456 22971 ft 386 kts 252°
2026-05-07 06:47 39.29664 3.28127 22972 ft 386 kts 252°
2026-05-07 06:47 39.28906 3.24805 22972 ft 386 kts 252°
2026-05-07 06:47 39.28142 3.21492 22971 ft 385 kts 252°
2026-05-07 06:47 39.27371 3.18178 22971 ft 385 kts 252°
2026-05-07 06:48 39.26596 3.14860 22972 ft 386 kts 252°
2026-05-07 06:48 39.25820 3.11551 22973 ft 385 kts 252°
2026-05-07 06:48 39.25043 3.08239 22966 ft 386 kts 252°
2026-05-07 06:48 39.24266 3.04935 22968 ft 386 kts 252°
2026-05-07 06:49 39.23497 3.01668 22961 ft 386 kts 252°
2026-05-07 06:49 39.22716 2.98358 22962 ft 385 kts 252°
2026-05-07 06:49 39.21936 2.95050 22963 ft 386 kts 252°
2026-05-07 06:49 39.21155 2.91743 22962 ft 385 kts 252°
2026-05-07 06:50 39.20372 2.88437 22962 ft 386 kts 252°
2026-05-07 06:50 39.19588 2.85130 22967 ft 385 kts 251°
2026-05-07 06:50 39.18733 2.81858 22964 ft 385 kts 249°
2026-05-07 06:50 39.17763 2.78646 22964 ft 385 kts 247°
2026-05-07 06:51 39.16751 2.75448 22964 ft 385 kts 247°
2026-05-07 06:51 39.15746 2.72298 22966 ft 385 kts 246°
2026-05-07 06:51 39.14729 2.69103 22965 ft 385 kts 247°
2026-05-07 06:51 39.13721 2.65910 22965 ft 385 kts 247°
2026-05-07 06:52 39.12718 2.62713 22961 ft 385 kts 247°
2026-05-07 06:52 39.11720 2.59520 22962 ft 385 kts 247°
2026-05-07 06:52 39.10722 2.56322 22959 ft 385 kts 247°
2026-05-07 06:52 39.09724 2.53123 22968 ft 385 kts 247°
2026-05-07 06:53 39.08725 2.49926 22962 ft 384 kts 247°
2026-05-07 06:53 39.07742 2.46779 22960 ft 385 kts 247°
2026-05-07 06:53 39.06746 2.43595 22961 ft 384 kts 247°
2026-05-07 06:53 39.05745 2.40402 22964 ft 385 kts 247°
2026-05-07 06:54 39.04743 2.37208 22963 ft 385 kts 247°
2026-05-07 06:54 39.03743 2.34017 22961 ft 385 kts 247°
2026-05-07 06:54 39.02739 2.30816 22965 ft 385 kts 247°
2026-05-07 06:54 39.01736 2.27628 22961 ft 385 kts 247°
2026-05-07 06:55 39.00743 2.24478 22957 ft 385 kts 247°
2026-05-07 06:55 38.99737 2.21287 22956 ft 385 kts 247°
2026-05-07 06:55 38.98731 2.18099 22953 ft 385 kts 247°
2026-05-07 06:55 38.97723 2.14912 22950 ft 385 kts 247°
2026-05-07 06:56 38.96719 2.11735 22956 ft 385 kts 247°
2026-05-07 06:56 38.95708 2.08557 22920 ft 380 kts 246°
2026-05-07 06:56 38.94726 2.05446 22443 ft 373 kts 247°
2026-05-07 06:56 38.93752 2.02386 21889 ft 367 kts 247°
2026-05-07 06:57 38.92809 1.99415 21309 ft 361 kts 246°
2026-05-07 06:57 38.91840 1.96450 20719 ft 359 kts 247°
2026-05-07 06:57 38.90915 1.93496 20118 ft 357 kts 248°
2026-05-07 06:57 38.90128 1.90452 19406 ft 363 kts 254°
2026-05-07 06:58 38.89500 1.87300 18775 ft 363 kts 255°
2026-05-07 06:58 38.88891 1.84169 18169 ft 361 kts 255°
2026-05-07 06:58 38.88277 1.81051 17574 ft 359 kts 255°
2026-05-07 06:58 38.87656 1.77957 16982 ft 357 kts 255°
2026-05-07 06:59 38.87032 1.74889 16401 ft 355 kts 255°
2026-05-07 06:59 38.86413 1.71875 15833 ft 353 kts 255°
2026-05-07 06:59 38.85786 1.68835 15253 ft 351 kts 255°
2026-05-07 06:59 38.85163 1.65820 14680 ft 349 kts 255°
2026-05-07 07:00 38.84540 1.62814 14109 ft 348 kts 255°
2026-05-07 07:00 38.83919 1.59821 13540 ft 346 kts 255°
2026-05-07 07:00 38.83279 1.56841 12923 ft 346 kts 253°
2026-05-07 07:00 38.82619 1.53877 12363 ft 345 kts 253°
2026-05-07 07:01 38.81962 1.50935 11812 ft 342 kts 253°
2026-05-07 07:01 38.81319 1.48045 11253 ft 341 kts 253°
2026-05-07 07:01 38.80675 1.45149 10992 ft 331 kts 253°
2026-05-07 07:01 38.80005 1.42380 10817 ft 320 kts 247°
2026-05-07 07:02 38.79040 1.39863 10669 ft 308 kts 240°
2026-05-07 07:02 38.78004 1.37510 10523 ft 299 kts 239°
2026-05-07 07:02 38.77006 1.35226 10388 ft 290 kts 240°
2026-05-07 07:02 38.76056 1.32989 10261 ft 281 kts 241°
2026-05-07 07:03 38.75147 1.30816 10139 ft 273 kts 241°
2026-05-07 07:03 38.74268 1.28702 10030 ft 265 kts 241°
2026-05-07 07:03 38.73420 1.26661 9787 ft 263 kts 241°
2026-05-07 07:03 38.72559 1.24597 9538 ft 262 kts 240°
2026-05-07 07:04 38.71703 1.22546 9278 ft 261 kts 241°
2026-05-07 07:04 38.70852 1.20504 9019 ft 260 kts 241°
2026-05-07 07:04 38.70000 1.18462 8751 ft 260 kts 240°
2026-05-07 07:04 38.69147 1.16421 8462 ft 260 kts 240°
2026-05-07 07:05 38.68295 1.14385 8194 ft 259 kts 240°
2026-05-07 07:05 38.67446 1.12354 7937 ft 259 kts 240°
2026-05-07 07:05 38.66611 1.10361 7673 ft 255 kts 240°
2026-05-07 07:05 38.65860 1.08366 7527 ft 242 kts 254°
2026-05-07 07:06 38.65883 1.06329 7403 ft 222 kts 288°
2026-05-07 07:06 38.66564 1.04581 6781 ft 227 kts 309°
2026-05-07 07:06 38.67767 1.03236 6060 ft 234 kts 332°
2026-05-07 07:06 38.69202 1.02252 5556 ft 230 kts 335°
2026-05-07 07:07 38.70647 1.01658 5402 ft 209 kts
2026-05-07 07:07 38.71955 1.02062 5288 ft 188 kts 30°
2026-05-07 07:07 38.72911 1.03068 5054 ft 176 kts 53°
2026-05-07 07:07 38.73614 1.04343 4785 ft 175 kts 59°
2026-05-07 07:08 38.74232 1.05665 4556 ft 172 kts 62°
2026-05-07 07:08 38.74813 1.07006 4290 ft 172 kts 63°
2026-05-07 07:08 38.75375 1.08349 4027 ft 171 kts 63°
2026-05-07 07:08 38.75929 1.09692 3774 ft 170 kts 62°
2026-05-07 07:09 38.76483 1.11024 3529 ft 166 kts 63°
2026-05-07 07:09 38.77001 1.12284 3432 ft 155 kts 63°
2026-05-07 07:09 38.77513 1.13478 3220 ft 152 kts 64°
2026-05-07 07:09 38.77992 1.14684 3081 ft 154 kts 64°
2026-05-07 07:10 38.78477 1.15886 3047 ft 154 kts 64°
2026-05-07 07:10 38.78971 1.17092 3003 ft 150 kts 63°
2026-05-07 07:10 38.79452 1.18268 2996 ft 150 kts 64°
2026-05-07 07:10 38.79947 1.19477 2818 ft 154 kts 63°
2026-05-07 07:11 38.80445 1.20689 2618 ft 153 kts 63°
2026-05-07 07:11 38.80935 1.21884 2417 ft 150 kts 63°
2026-05-07 07:11 38.81416 1.23054 2232 ft 147 kts 63°
2026-05-07 07:11 38.81884 1.24193 2053 ft 139 kts 62°
2026-05-07 07:12 38.82316 1.25248 1849 ft 129 kts 62°
2026-05-07 07:12 38.82726 1.26243 1692 ft 128 kts 62°
2026-05-07 07:12 38.83148 1.27268 1523 ft 132 kts 62°
2026-05-07 07:12 38.83574 1.28305 1347 ft 131 kts 62°
2026-05-07 07:13 38.83996 1.29340 1156 ft 132 kts 62°
2026-05-07 07:13 38.84389 1.30404 875 ft 132 kts 64°
2026-05-07 07:13 38.84826 1.31413 671 ft 127 kts 59°
2026-05-07 07:13 38.85258 1.32411 559 ft 129 kts 62°
2026-05-07 07:14 38.85681 1.33448 421 ft 133 kts 62°
2026-05-07 07:14 38.86109 1.34484 276 ft 133 kts 60°
2026-05-07 07:14 38.86540 1.35522 94 ft 131 kts 61°
2026-05-07 07:14 38.86960 1.36524 8 ft 119 kts 62°
2026-05-07 07:15 38.87290 1.37324 9 ft 84 kts 62°
2026-05-07 07:15 38.87489 1.37774 9 ft 34 kts 44°
2026-05-07 07:15 38.87620 1.37888 9 ft 15 kts 32°
2026-05-07 07:15 38.87698 1.37863 8 ft 15 kts 266°
2026-05-07 07:16 38.87652 1.37748 9 ft 14 kts 241°
2026-05-07 07:16 38.87605 1.37638 9 ft 14 kts 242°
2026-05-07 07:16 38.87606 1.37540 9 ft 12 kts 330°
2026-05-07 07:16 38.87677 1.37489 9 ft 12 kts 320°
2026-05-07 07:17 38.87685 1.37396 8 ft 11 kts 242°
2026-05-07 07:17 38.87647 1.37307 8 ft 11 kts 242°
2026-05-07 07:17 38.87612 1.37220 9 ft 11 kts 242°
2026-05-07 07:17 38.87577 1.37136 8 ft 11 kts 242°
2026-05-07 07:18 38.87543 1.37054 10 ft 10 kts 242°
2026-05-07 07:18 38.87510 1.36975 9 ft 10 kts 242°
2026-05-07 07:18 38.87489 1.36906 7 ft 6 kts 282°
2026-05-07 07:18 38.87517 1.36875 7 ft 3 kts 332°
2026-05-07 07:19 38.87532 1.36865 7 ft 0 kts 332°
2026-05-07 07:19 38.87533 1.36865 7 ft 0 kts 332°
2026-05-07 07:58 38.87528 1.36868 8 ft 4 kts 331°
2026-05-07 07:58 38.87506 1.36887 9 ft 4 kts 315°
2026-05-07 07:58 38.87492 1.36913 7 ft 4 kts 278°
2026-05-07 07:59 38.87493 1.36933 7 ft 0 kts 241°
2026-05-07 08:01 38.87492 1.36933 7 ft 1 kts 241°
2026-05-07 08:01 38.87475 1.36892 7 ft 9 kts 243°
2026-05-07 08:02 38.87460 1.36854 7 ft 2 kts 242°
2026-05-07 08:02 38.87455 1.36841 7 ft 2 kts 242°
2026-05-07 08:02 38.87450 1.36829 9 ft 1 kts 242°
2026-05-07 08:02 38.87445 1.36818 7 ft 1 kts 242°
2026-05-07 08:03 38.87441 1.36808 9 ft 1 kts 239°
2026-05-07 08:03 38.87434 1.36800 7 ft 1 kts 216°
2026-05-07 08:03 38.87425 1.36797 7 ft 1 kts 191°
2026-05-07 08:03 38.87416 1.36797 7 ft 2 kts 179°
2026-05-07 08:04 38.87371 1.36817 8 ft 13 kts 155°
2026-05-07 08:04 38.87273 1.36837 8 ft 11 kts 232°
2026-05-07 08:04 38.87237 1.36745 8 ft 11 kts 243°
2026-05-07 08:04 38.87201 1.36655 8 ft 11 kts 243°
2026-05-07 08:05 38.87166 1.36568 8 ft 11 kts 242°
2026-05-07 08:05 38.87131 1.36484 7 ft 11 kts 242°
2026-05-07 08:05 38.87097 1.36402 7 ft 10 kts 242°
2026-05-07 08:05 38.87060 1.36313 8 ft 13 kts 242°
2026-05-07 08:06 38.87009 1.36190 9 ft 17 kts 242°
2026-05-07 08:06 38.86953 1.36055 7 ft 17 kts 242°
2026-05-07 08:06 38.86902 1.35930 7 ft 14 kts 242°
2026-05-07 08:06 38.86852 1.35828 8 ft 11 kts 214°
2026-05-07 08:07 38.86807 1.35828 6 ft 5 kts 155°
2026-05-07 08:07 38.86794 1.35838 6 ft 3 kts 153°
2026-05-07 08:07 38.86773 1.35851 6 ft 4 kts 153°
2026-05-07 08:07 38.86743 1.35873 5 ft 6 kts 147°
2026-05-07 08:08 38.86718 1.35917 6 ft 7 kts 99°
2026-05-07 08:08 38.86777 1.36087 4 ft 52 kts 62°
2026-05-07 08:08 38.87065 1.36784 8 ft 122 kts 62°
2026-05-07 08:08 38.87552 1.37963 98 ft 170 kts 62°
2026-05-07 08:09 38.88074 1.39245 1010 ft 159 kts 64°
2026-05-07 08:09 38.88481 1.40612 1667 ft 175 kts 78°
2026-05-07 08:09 38.88721 1.42287 1968 ft 204 kts 79°
2026-05-07 08:09 38.89040 1.44152 2363 ft 222 kts 77°
2026-05-07 08:10 38.89387 1.46045 3245 ft 217 kts 77°
2026-05-07 08:10 38.89726 1.48039 3621 ft 243 kts 77°
2026-05-07 08:10 38.90108 1.50178 4454 ft 244 kts 77°
2026-05-07 08:10 38.90489 1.52258 5577 ft 235 kts 77°
2026-05-07 08:11 38.91032 1.54158 6599 ft 229 kts 58°
2026-05-07 08:11 38.92064 1.55792 7113 ft 249 kts 45°
2026-05-07 08:11 38.93425 1.57341 7447 ft 272 kts 42°
2026-05-07 08:11 38.94883 1.58941 8152 ft 279 kts 42°
2026-05-07 08:12 38.96362 1.60597 8968 ft 283 kts 43°
2026-05-07 08:12 38.97846 1.62287 9743 ft 288 kts 43°
2026-05-07 08:12 38.99352 1.64014 10490 ft 293 kts 41°
2026-05-07 08:12 39.01133 1.65312 11178 ft 300 kts 15°
2026-05-07 08:13 39.03173 1.65715 11963 ft 302 kts
2026-05-07 08:13 39.05312 1.65975 12654 ft 309 kts
2026-05-07 08:13 39.07442 1.66239 13352 ft 312 kts
2026-05-07 08:13 39.09610 1.66342 14116 ft 313 kts 349°
2026-05-07 08:14 39.11710 1.65488 14473 ft 327 kts 335°
2026-05-07 08:14 39.13871 1.64286 14639 ft 349 kts 334°
2026-05-07 08:14 39.16149 1.62971 14803 ft 369 kts 334°
2026-05-07 08:14 39.18535 1.61592 15209 ft 381 kts 334°
2026-05-07 08:15 39.20969 1.60199 15849 ft 384 kts 334°
2026-05-07 08:15 39.23423 1.58806 16534 ft 386 kts 334°
2026-05-07 08:15 39.25861 1.57430 17174 ft 389 kts 334°
2026-05-07 08:15 39.28352 1.56027 17760 ft 393 kts 334°
2026-05-07 08:16 39.30870 1.54611 18339 ft 396 kts 334°
2026-05-07 08:16 39.33409 1.53183 18918 ft 400 kts 334°
2026-05-07 08:16 39.35970 1.51744 19440 ft 404 kts 333°
2026-05-07 08:16 39.38562 1.50284 19974 ft 408 kts 333°
2026-05-07 08:17 39.41179 1.48810 20488 ft 412 kts 333°
2026-05-07 08:17 39.43783 1.47342 20990 ft 415 kts 333°
2026-05-07 08:17 39.46437 1.45844 21483 ft 418 kts 332°
2026-05-07 08:17 39.47962 1.44982 21754 ft 421 kts 332°
2026-05-07 08:18 39.50398 1.43605 22171 ft 424 kts 332°
2026-05-07 08:18 39.53110 1.42072 22634 ft 427 kts 332°
2026-05-07 08:18 39.55842 1.40527 23074 ft 430 kts 332°
2026-05-07 08:18 39.58595 1.38966 23502 ft 433 kts 332°
2026-05-07 08:19 39.61468 1.37671 23889 ft 445 kts 345°
2026-05-07 08:19 39.64568 1.37197 24331 ft 450 kts 350°
2026-05-07 08:19 39.67660 1.36845 24708 ft 454 kts 351°
2026-05-07 08:19 39.70820 1.36500 25078 ft 457 kts 350°
2026-05-07 08:20 39.73997 1.36138 25448 ft 460 kts 350°
2026-05-07 08:20 39.77193 1.35753 25835 ft 462 kts 350°
2026-05-07 08:20 39.80398 1.35348 26204 ft 464 kts 349°
2026-05-07 08:20 39.83629 1.34927 26544 ft 467 kts 349°
2026-05-07 08:21 39.86866 1.34498 26878 ft 470 kts 349°